Time,TemperatureF,DewpointF,PressureIn,WindDirection,WindDirectionDegrees,WindSpeedMPH,WindSpeedGustMPH,Humidity,HourlyPrecipIn,Conditions,Clouds,dailyrainin,SoftwareType,DateUTC
2013-05-02 00:03:00,71.0,-34.0,29.93,NNE,19,0.0,-999.0,1,-99.99,,,-99.99,,2013-05-02 04:03:00,
2013-05-02 00:12:00,71.0,-34.0,29.93,NNE,19,0.0,-999.0,1,-99.99,,,-99.99,,2013-05-02 04:12:00,
2013-05-02 00:23:00,72.0,-34.0,29.93,NNE,19,0.0,-999.0,1,-99.99,,,-99.99,,2013-05-02 04:23:00,
2013-05-02 00:33:00,72.0,-34.0,29.93,NNE,19,0.0,-999.0,1,-99.99,,,-99.99,,2013-05-02 04:33:00,
2013-05-02 00:42:00,72.0,-34.0,29.93,NNE,19,0.0,-999.0,1,-99.99,,,-99.99,,2013-05-02 04:42:00,
2013-05-02 00:52:00,71.0,-34.0,29.92,North,0,0.0,-999.0,1,-99.99,,,-99.99,,2013-05-02 04:52:00,
2013-05-02 01:02:00,71.0,-34.0,29.92,North,0,0.0,-999.0,1,-99.99,,,-99.99,,2013-05-02 05:02:00,
2013-05-02 01:12:00,71.0,-34.0,29.92,North,0,0.0,-999.0,1,-99.99,,,-99.99,,2013-05-02 05:12:00,
2013-05-02 01:22:00,72.0,66.0,29.92,North,0,0.0,-999.0,81,-99.99,,,-99.99,,2013-05-02 05:22:00,
2013-05-02 01:32:00,72.0,-34.0,29.91,North,0,0.0,-999.0,1,-99.99,,,-99.99,,2013-05-02 05:32:00,
2013-05-02 01:42:00,72.0,-34.0,29.91,North,0,0.0,-999.0,1,-99.99,,,-99.99,,2013-05-02 05:42:00,
2013-05-02 01:52:00,72.0,-34.0,29.91,North,0,0.0,-999.0,1,-99.99,,,-99.99,,2013-05-02 05:52:00,
2013-05-02 02:01:00,72.0,-34.0,29.90,North,0,0.0,-999.0,1,-99.99,,,-99.99,,2013-05-02 06:01:00,
2013-05-02 02:12:00,72.0,-34.0,29.90,North,0,0.0,-999.0,1,-99.99,,,-99.99,,2013-05-02 06:12:00,
2013-05-02 02:52:00,72.0,-34.0,29.89,North,1,0.0,-999.0,1,-99.99,,,-99.99,,2013-05-02 06:52:00,
2013-05-02 03:02:00,72.0,-34.0,29.89,North,1,0.0,-999.0,1,-99.99,,,-99.99,,2013-05-02 07:02:00,
2013-05-02 03:11:00,72.0,-34.0,29.89,North,1,0.0,-999.0,1,-99.99,,,-99.99,,2013-05-02 07:11:00,
2013-05-02 03:21:00,72.0,-34.0,29.89,North,1,0.0,-999.0,1,-99.99,,,-99.99,,2013-05-02 07:21:00,
2013-05-02 03:32:00,71.0,-34.0,29.89,North,1,0.0,-999.0,1,-99.99,,,-99.99,,2013-05-02 07:32:00,
2013-05-02 03:42:00,71.0,-34.0,29.89,North,1,0.0,-999.0,1,-99.99,,,-99.99,,2013-05-02 07:42:00,
2013-05-02 03:52:00,71.0,-34.0,29.89,North,1,0.0,-999.0,1,-99.99,,,-99.99,,2013-05-02 07:52:00,
2013-05-02 04:02:00,71.0,-34.0,29.89,North,1,0.0,-999.0,1,-99.99,,,-99.99,,2013-05-02 08:02:00,
2013-05-02 04:11:00,71.0,-34.0,29.89,North,1,0.0,-999.0,1,-99.99,,,-99.99,,2013-05-02 08:11:00,
2013-05-02 04:22:00,71.0,-34.0,29.87,North,1,0.0,-999.0,1,-99.99,,,-99.99,,2013-05-02 08:22:00,
2013-05-02 04:32:00,71.0,-34.0,29.87,North,1,0.0,-999.0,1,-99.99,,,-99.99,,2013-05-02 08:32:00,
2013-05-02 04:42:00,71.0,-34.0,29.87,North,1,0.0,-999.0,1,-99.99,,,-99.99,,2013-05-02 08:42:00,
2013-05-02 04:52:00,71.0,-34.0,29.88,North,1,0.0,-999.0,1,-99.99,,,-99.99,,2013-05-02 08:52:00,
2013-05-02 05:02:00,71.0,-34.0,29.88,North,1,0.0,-999.0,1,-99.99,,,-99.99,,2013-05-02 09:02:00,
2013-05-02 05:12:00,71.0,-34.0,29.88,North,1,0.0,-999.0,1,-99.99,,,-99.99,,2013-05-02 09:12:00,
2013-05-02 05:21:00,71.0,-34.0,29.87,North,1,0.0,-999.0,1,-99.99,,,-99.99,,2013-05-02 09:21:00,
2013-05-02 05:32:00,70.0,-35.0,29.87,North,1,0.0,-999.0,1,-99.99,,,-99.99,,2013-05-02 09:32:00,
2013-05-02 05:42:00,70.0,-35.0,29.87,North,1,0.0,-999.0,1,-99.99,,,-99.99,,2013-05-02 09:42:00,
2013-05-02 05:52:00,71.0,-34.0,29.87,North,1,0.0,-999.0,1,-99.99,,,-99.99,,2013-05-02 09:52:00,
2013-05-02 06:22:00,71.0,-34.0,29.87,North,1,0.0,-999.0,1,-99.99,,,-99.99,,2013-05-02 10:22:00,
2013-05-02 06:33:00,71.0,-34.0,29.87,North,1,0.0,-999.0,1,-99.99,,,-99.99,,2013-05-02 10:33:00,
2013-05-02 06:42:00,71.0,-34.0,29.87,North,1,0.0,-999.0,1,-99.99,,,-99.99,,2013-05-02 10:42:00,
2013-05-02 06:53:00,71.0,-34.0,29.87,North,1,0.0,-999.0,1,-99.99,,,-99.99,,2013-05-02 10:53:00,
2013-05-02 07:02:00,71.0,-34.0,29.88,North,1,0.0,-999.0,1,-99.99,,,-99.99,,2013-05-02 11:02:00,
2013-05-02 07:12:00,71.0,-34.0,29.88,North,1,0.0,-999.0,1,-99.99,,,-99.99,,2013-05-02 11:12:00,
2013-05-02 07:22:00,72.0,-34.0,29.87,North,1,0.0,-999.0,1,-99.99,,,-99.99,,2013-05-02 11:22:00,
2013-05-02 07:32:00,72.0,-34.0,29.87,North,1,0.0,-999.0,1,-99.99,,,-99.99,,2013-05-02 11:32:00,
2013-05-02 07:42:00,72.0,-34.0,29.87,North,1,0.0,-999.0,1,-99.99,,,-99.99,,2013-05-02 11:42:00,
2013-05-02 07:52:00,73.0,-33.0,29.88,SE,135,2.0,-999.0,1,-99.99,,,-99.99,,2013-05-02 11:52:00,
2013-05-02 08:01:00,73.0,-33.0,29.89,SE,135,0.0,-999.0,1,-99.99,,,-99.99,,2013-05-02 12:01:00,
2013-05-02 08:12:00,73.0,-33.0,29.89,SE,135,0.0,-999.0,1,-99.99,,,-99.99,,2013-05-02 12:12:00,
2013-05-02 08:21:00,73.0,-33.0,29.88,SE,135,0.0,-999.0,1,-99.99,,,-99.99,,2013-05-02 12:21:00,
2013-05-02 08:32:00,75.0,-32.0,29.88,SE,139,0.0,-999.0,1,-99.99,,,-99.99,,2013-05-02 12:32:00,
2013-05-02 08:42:00,75.0,-32.0,29.88,SE,139,0.0,-999.0,1,-99.99,,,-99.99,,2013-05-02 12:42:00,
2013-05-02 08:52:00,76.0,-31.0,29.89,SE,141,0.0,-999.0,1,-99.99,,,-99.99,,2013-05-02 12:52:00,
2013-05-02 09:01:00,77.0,-31.0,29.89,SE,134,5.0,-999.0,1,-99.99,,,-99.99,,2013-05-02 13:01:00,
2013-05-02 09:11:00,77.0,-31.0,29.89,SE,134,5.0,-999.0,1,-99.99,,,-99.99,,2013-05-02 13:11:00,
2013-05-02 09:22:00,78.0,-30.0,29.89,SE,131,0.0,-999.0,1,-99.99,,,-99.99,,2013-05-02 13:22:00,
2013-05-02 09:32:00,77.0,-31.0,29.90,SE,133,0.0,-999.0,1,-99.99,,,-99.99,,2013-05-02 13:32:00,
2013-05-02 09:42:00,77.0,-31.0,29.90,SE,133,0.0,-999.0,1,-99.99,,,-99.99,,2013-05-02 13:42:00,
2013-05-02 09:52:00,80.0,-29.0,29.88,SSE,149,0.0,-999.0,1,-99.99,,,-99.99,,2013-05-02 13:52:00,
2013-05-02 10:02:00,78.0,-30.0,29.89,ESE,119,0.0,-999.0,1,-99.99,,,-99.99,,2013-05-02 14:02:00,
2013-05-02 10:11:00,78.0,-30.0,29.89,ESE,119,0.0,-999.0,1,-99.99,,,-99.99,,2013-05-02 14:11:00,
2013-05-02 10:22:00,78.0,-30.0,29.89,ESE,105,2.0,-999.0,1,-99.99,,,-99.99,,2013-05-02 14:22:00,
2013-05-02 10:32:00,76.0,-31.0,29.88,ESE,112,10.0,-999.0,1,-99.99,,,-99.99,,2013-05-02 14:32:00,
2013-05-02 10:42:00,76.0,-31.0,29.88,ESE,112,10.0,-999.0,1,-99.99,,,-99.99,,2013-05-02 14:42:00,
2013-05-02 10:52:00,76.0,-31.0,29.88,ESE,118,2.0,-999.0,1,-99.99,,,-99.99,,2013-05-02 14:52:00,
2013-05-02 11:02:00,77.0,-31.0,29.88,ESE,113,2.0,-999.0,1,-99.99,,,-99.99,,2013-05-02 15:02:00,
2013-05-02 11:12:00,77.0,-31.0,29.88,ESE,113,2.0,-999.0,1,-99.99,,,-99.99,,2013-05-02 15:12:00,
2013-05-02 11:22:00,78.0,-30.0,29.89,ESE,105,6.0,-999.0,1,-99.99,,,-99.99,,2013-05-02 15:22:00,
2013-05-02 11:33:00,78.0,-30.0,29.89,ESE,105,6.0,-999.0,1,-99.99,,,-99.99,,2013-05-02 15:33:00,
2013-05-02 11:43:00,78.0,-30.0,29.89,ESE,105,6.0,-999.0,1,-99.99,,,-99.99,,2013-05-02 15:43:00,
2013-05-02 12:03:00,73.0,-33.0,29.90,SSE,166,3.0,-999.0,1,-99.99,,,-99.99,,2013-05-02 16:03:00,
2013-05-02 12:13:00,73.0,-33.0,29.90,SSE,166,3.0,-999.0,1,-99.99,,,-99.99,,2013-05-02 16:13:00,
2013-05-02 12:22:00,72.0,-34.0,29.89,South,170,0.0,-999.0,1,-99.99,,,-99.99,,2013-05-02 16:22:00,
2013-05-02 12:32:00,72.0,-34.0,29.89,SSE,155,4.0,-999.0,1,-99.99,,,-99.99,,2013-05-02 16:32:00,
2013-05-02 12:43:00,71.0,-34.0,29.88,SE,137,3.0,-999.0,1,-99.99,,,-99.99,,2013-05-02 16:43:00,
2013-05-02 12:52:00,71.0,-34.0,29.88,SE,137,3.0,-999.0,1,-99.99,,,-99.99,,2013-05-02 16:52:00,
2013-05-02 13:02:00,69.0,-35.0,29.88,SE,131,0.0,-999.0,1,-99.99,,,-99.99,,2013-05-02 17:02:00,
2013-05-02 13:12:00,68.0,-36.0,29.88,SE,134,0.0,-999.0,1,-99.99,,,-99.99,,2013-05-02 17:12:00,
2013-05-02 13:22:00,68.0,-36.0,29.88,SE,134,0.0,-999.0,1,-99.99,,,-99.99,,2013-05-02 17:22:00,
2013-05-02 13:32:00,69.0,-35.0,29.90,South,170,2.0,-999.0,1,-99.99,,,-99.99,,2013-05-02 17:32:00,
2013-05-02 13:42:00,69.0,-35.0,29.90,South,170,2.0,-999.0,1,-99.99,,,-99.99,,2013-05-02 17:42:00,
2013-05-02 13:52:00,69.0,-35.0,29.90,South,170,2.0,-999.0,1,-99.99,,,-99.99,,2013-05-02 17:52:00,
2013-05-02 14:01:00,68.0,-36.0,29.88,ESE,114,0.0,-999.0,1,-99.99,,,-99.99,,2013-05-02 18:01:00,
2013-05-02 14:11:00,68.0,-36.0,29.88,ESE,114,0.0,-999.0,1,-99.99,,,-99.99,,2013-05-02 18:11:00,
2013-05-02 14:32:00,68.0,-36.0,29.87,East,93,0.0,-999.0,1,-99.99,,,-99.99,,2013-05-02 18:32:00,
2013-05-02 14:42:00,68.0,-36.0,29.87,East,93,0.0,-999.0,1,-99.99,,,-99.99,,2013-05-02 18:42:00,
2013-05-02 14:52:00,69.0,-35.0,29.88,East,93,0.0,-999.0,1,-99.99,,,-99.99,,2013-05-02 18:52:00,
2013-05-02 15:01:00,69.0,-35.0,29.88,East,93,0.0,-999.0,1,-99.99,,,-99.99,,2013-05-02 19:01:00,
2013-05-02 15:11:00,69.0,-35.0,29.88,East,93,0.0,-999.0,1,-99.99,,,-99.99,,2013-05-02 19:11:00,
2013-05-02 15:22:00,69.0,-35.0,29.88,NNE,22,0.0,-999.0,1,-99.99,,,-99.99,,2013-05-02 19:22:00,
2013-05-02 15:32:00,70.0,-35.0,29.87,NNE,22,0.0,-999.0,1,-99.99,,,-99.99,,2013-05-02 19:32:00,
2013-05-02 15:42:00,70.0,-35.0,29.87,NNE,22,0.0,-999.0,1,-99.99,,,-99.99,,2013-05-02 19:42:00,
2013-05-02 15:52:00,70.0,-35.0,29.86,NNE,20,0.0,-999.0,1,-99.99,,,-99.99,,2013-05-02 19:52:00,
2013-05-02 16:02:00,70.0,-35.0,29.86,NE,39,0.0,-999.0,1,-99.99,,,-99.99,,2013-05-02 20:02:00,
2013-05-02 16:11:00,70.0,-35.0,29.86,NE,39,0.0,-999.0,1,-99.99,,,-99.99,,2013-05-02 20:11:00,
2013-05-02 16:22:00,70.0,-35.0,29.86,NE,39,0.0,-999.0,1,-99.99,,,-99.99,,2013-05-02 20:22:00,
2013-05-02 16:32:00,70.0,-35.0,29.86,NE,40,0.0,-999.0,1,-99.99,,,-99.99,,2013-05-02 20:32:00,
2013-05-02 16:41:00,70.0,-35.0,29.86,NE,40,0.0,-999.0,1,-99.99,,,-99.99,,2013-05-02 20:41:00,
2013-05-02 16:52:00,70.0,-35.0,29.86,NE,53,0.0,-999.0,1,-99.99,,,-99.99,,2013-05-02 20:52:00,
2013-05-02 17:01:00,70.0,-35.0,29.86,NE,53,0.0,-999.0,1,-99.99,,,-99.99,,2013-05-02 21:01:00,
2013-05-02 17:12:00,70.0,-35.0,29.86,NE,53,0.0,-999.0,1,-99.99,,,-99.99,,2013-05-02 21:12:00,
2013-05-02 17:33:00,70.0,-35.0,29.84,NE,47,3.0,-999.0,1,-99.99,,,-99.99,,2013-05-02 21:33:00,
2013-05-02 17:42:00,70.0,-35.0,29.84,NE,47,3.0,-999.0,1,-99.99,,,-99.99,,2013-05-02 21:42:00,
2013-05-02 17:53:00,71.0,-34.0,29.85,ENE,66,1.0,-999.0,1,-99.99,,,-99.99,,2013-05-02 21:53:00,
2013-05-02 18:03:00,71.0,-34.0,29.85,ENE,74,0.0,-999.0,1,-99.99,,,-99.99,,2013-05-02 22:03:00,
2013-05-02 18:12:00,71.0,-34.0,29.85,ENE,74,0.0,-999.0,1,-99.99,,,-99.99,,2013-05-02 22:12:00,
2013-05-02 18:22:00,71.0,-34.0,29.85,ENE,76,6.0,-999.0,1,-99.99,,,-99.99,,2013-05-02 22:22:00,
2013-05-02 18:32:00,70.0,-35.0,29.84,ENE,74,6.0,-999.0,1,-99.99,,,-99.99,,2013-05-02 22:32:00,
2013-05-02 18:42:00,70.0,-35.0,29.84,ENE,74,6.0,-999.0,1,-99.99,,,-99.99,,2013-05-02 22:42:00,
2013-05-02 18:53:00,70.0,-35.0,29.83,East,95,2.0,-999.0,1,-99.99,,,-99.99,,2013-05-02 22:53:00,
2013-05-02 19:22:00,70.0,-35.0,29.81,East,88,6.0,-999.0,1,-99.99,,,-99.99,,2013-05-02 23:22:00,
2013-05-02 19:32:00,70.0,-35.0,29.80,ENE,75,8.0,-999.0,1,-99.99,,,-99.99,,2013-05-02 23:32:00,
2013-05-02 19:42:00,70.0,-35.0,29.80,ENE,75,8.0,-999.0,1,-99.99,,,-99.99,,2013-05-02 23:42:00,
2013-05-02 19:51:00,70.0,-35.0,29.80,ENE,75,8.0,-999.0,1,-99.99,,,-99.99,,2013-05-02 23:51:00,
2013-05-02 20:01:00,70.0,-35.0,29.79,East,87,14.0,-999.0,1,-99.99,,,-99.99,,2013-05-03 00:01:00,
2013-05-02 20:11:00,70.0,-35.0,29.79,East,87,14.0,-999.0,1,-99.99,,,-99.99,,2013-05-03 00:11:00,
2013-05-02 20:22:00,70.0,-35.0,29.79,ENE,69,6.0,-999.0,1,-99.99,,,-99.99,,2013-05-03 00:22:00,
2013-05-02 20:32:00,71.0,-34.0,29.79,East,80,4.0,-999.0,1,-99.99,,,-99.99,,2013-05-03 00:32:00,
2013-05-02 20:42:00,71.0,-34.0,29.79,East,80,4.0,-999.0,1,-99.99,,,-99.99,,2013-05-03 00:42:00,
2013-05-02 20:52:00,71.0,-34.0,29.79,ENE,70,0.0,-999.0,1,-99.99,,,-99.99,,2013-05-03 00:52:00,
2013-05-02 21:01:00,71.0,-34.0,29.79,NE,47,4.0,-999.0,1,-99.99,,,-99.99,,2013-05-03 01:01:00,
2013-05-02 21:11:00,71.0,-34.0,29.79,NE,47,4.0,-999.0,1,-99.99,,,-99.99,,2013-05-03 01:11:00,
2013-05-02 21:21:00,71.0,-34.0,29.80,ENE,59,1.0,-999.0,1,-99.99,,,-99.99,,2013-05-03 01:21:00,
2013-05-02 21:32:00,71.0,-34.0,29.80,NE,36,6.0,-999.0,1,-99.99,,,-99.99,,2013-05-03 01:32:00,
2013-05-02 21:42:00,71.0,-34.0,29.80,NE,36,6.0,-999.0,1,-99.99,,,-99.99,,2013-05-03 01:42:00,
2013-05-02 21:52:00,71.0,-34.0,29.80,ENE,68,2.0,-999.0,1,-99.99,,,-99.99,,2013-05-03 01:52:00,
2013-05-02 22:01:00,71.0,-34.0,29.80,ENE,72,8.0,-999.0,1,-99.99,,,-99.99,,2013-05-03 02:01:00,
2013-05-02 22:11:00,71.0,-34.0,29.80,ENE,72,8.0,-999.0,1,-99.99,,,-99.99,,2013-05-03 02:11:00,
2013-05-02 22:22:00,72.0,-34.0,29.80,ENE,63,6.0,-999.0,1,-99.99,,,-99.99,,2013-05-03 02:22:00,
2013-05-02 22:32:00,72.0,-34.0,29.81,East,97,6.0,-999.0,1,-99.99,,,-99.99,,2013-05-03 02:32:00,
2013-05-02 22:42:00,72.0,-34.0,29.81,East,97,6.0,-999.0,1,-99.99,,,-99.99,,2013-05-03 02:42:00,
2013-05-02 22:52:00,72.0,-34.0,29.81,ENE,68,0.0,-999.0,1,-99.99,,,-99.99,,2013-05-03 02:52:00,
2013-05-02 23:01:00,72.0,-34.0,29.81,East,80,0.0,-999.0,1,-99.99,,,-99.99,,2013-05-03 03:01:00,
2013-05-02 23:11:00,72.0,-34.0,29.81,East,80,0.0,-999.0,1,-99.99,,,-99.99,,2013-05-03 03:11:00,
2013-05-02 23:21:00,72.0,-34.0,29.81,East,86,3.0,-999.0,1,-99.99,,,-99.99,,2013-05-03 03:21:00,
2013-05-02 23:33:00,72.0,-34.0,29.81,East,85,0.0,-999.0,1,-99.99,,,-99.99,,2013-05-03 03:33:00,
2013-05-02 23:43:00,72.0,-34.0,29.81,East,85,0.0,-999.0,1,-99.99,,,-99.99,,2013-05-03 03:43:00,
2013-05-02 23:53:00,73.0,-33.0,29.80,East,87,0.0,-999.0,1,-99.99,,,-99.99,,2013-05-03 03:53:00,